Weather in Gurzuf

Russia / Republic of Crimea     44°32′50″N   34°17′29″E
temp.,
°C
wind,
m/s
gust,
m/s
humid.,
%
clouds,
%
prec.,
mm/h
press.,
hPa
HPBL,
m
23 october, sat
sat2300:00+14w566528 0.0 1018124
03:00+14w456673 0.0 1018115
06:00+14w5668100 0.0 1017139
09:00+15w4664100 0.0 1018123
12:00+17wsw5665100 0.0 1018349
15:00+17wsw5668100 0.0 1017329
18:00+16wnw4473100 0.0 101856
21:00+15nw337379 0.0 101928
24 october, sun
sun2400:00+15n2275100 0.0 101950
03:00+14e448697 0.0 1020264
06:00+13e5589100 0.4 1019430
09:00+12ne7986100 9.2 1020646
12:00+10n6679100 6.1 1021627
15:00+8nnw5680100 12.9 1022424
18:00+8nw34713 0.6 1025536
21:00+8nw226130 0.6 1026247
25 october, mon
mon2500:00+8nw335833 0.0 1028663
03:00+7nnw446321 0.1 1028534
06:00+7nnw44702 0.0 1030370
09:00+7nnw33708 0.0 1031381
12:00+9sse015615 0.0 1031984
15:00+9se326286 0.0 1030810
18:00+8ese226288 0.0 1031975
21:00+8e436355 0.0 1032984
26 october, tue
tue2600:00+7ene446511 0.0 1032750
03:00+7ne44654 0.0 1032773
06:00+6ne56673 0.0 1031804
09:00+7ne67695 0.0 1031891
12:00+8ene77698 0.0 1030913
15:00+9ne78674 0.0 1028848
18:00+8ne787314 0.0 1028766
21:00+8ne787429 0.0 1027758
27 october, wed
wed2700:00+9ene567756 0.0 1026759
03:00+10ene557430 0.0 1025732
06:00+9ne447823 0.0 1025532
09:00+10ne237312 0.0 1025373
12:00+11ene22680 0.0 1024368
15:00+12ese22660 0.0 1023471
18:00+11ssw11685 0.0 1023350
21:00+10wnw226399 0.0 1024194